Regional Weather Roundup
Issued by NWS Upton, NY

Home | Current Version | Previous Version | Text Only | Print | Product List | Glossary On
Versions: 1 2 3 4 5 6 7 8 9 10 11 12 13 14 15 16 17 18 19 20 21 22 23 24 25 26 27 28 29 30
000
ASUS41 KOKX 192000
RWROKX

REGIONAL WEATHER ROUNDUP
NATIONAL WEATHER SERVICE NEW YORK NY
300 PM EST SUN NOV 19 2017

NOTE: "FAIR" INDICATES FEW OR NO CLOUDS BELOW 12,000 FEET WITH NO
SIGNIFICANT WEATHER AND/OR OBSTRUCTIONS TO VISIBILITY.

NYZ071-072-176-178-NJZ106-104-192100-
NEW YORK CITY METRO AREA

CITY           SKY/WX    TMP DP  RH WIND       PRES   REMARKS
Central Park   CLOUDY    48  28  46 W15G28    29.58R
Bronx Bot Gard NOT AVBL
LaGuardia APRT PTSUNNY   49  32  52 NW20G35   29.56R
Kennedy INTL   PTSUNNY   49  30  48 NW26G35   29.56R
Breezy Point   NOT AVBL
Newark/Liberty PTSUNNY   50  29  44 NW25      29.57R
Teterboro      PTSUNNY   47  29  49 NW20G33   29.56R
$$

NYZ177-179-078>081-192100-
LONG ISLAND NEW YORK

CITY           SKY/WX    TMP DP  RH WIND       PRES   REMARKS
Jones Beach    NOT AVBL
Matinecock PT  NOT AVBL
Farmingdale    PTSUNNY   48  29  47 NW21G38   29.54R
MacArthur/ISP  NOT AVBL
Shirley        NOT AVBL
Mt Sinai Harb  NOT AVBL
Westhampton    SUNNY     49  29  46 W26G36    29.50R
East Hampton   FAIR      48  31  52 W18G35    29.44R
Southold       NOT AVBL
Montauk        NOT AVBL
$$

NYZ052-065-067-192100-
HUDSON VALLEY

CITY           SKY/WX    TMP DP  RH WIND       PRES   REMARKS
White Plains   NOT AVBL
Larchmont Harb NOT AVBL
Croton On Huds NOT AVBL
Newburgh       PTSUNNY   41  28  60 NW25G35   29.56R
Montgomery     CLOUDY    43  27  53 NW17G26   29.56R
Poughkeepsie   PTSUNNY   43  27  53 W14G30    29.55R
Albany         CLOUDY    38  27  64 W18G33    29.55R WCI  28
$$

NJZ001-105-106-008-010-013-015-019>022-104-192100-
NEW JERSEY

CITY           SKY/WX    TMP DP  RH WIND       PRES   REMARKS
Newark/Liberty PTSUNNY   50  29  44 NW25      29.57R
Teterboro      PTSUNNY   47  29  49 NW20G33   29.56R
Caldwell       PTSUNNY   46  27  47 NW22G35   29.59R
Somerville     PTSUNNY   50  30  46 NW15G24   29.56R
Linden         FAIR      50  28  43 NW21G26   29.57R
Perth Amboy    NOT AVBL
Sussex         CLOUDY    44  27  51 NW13G26   29.60R
Andover        NOT AVBL
Trenton        MOSUNNY   52  28  39 NW17G30   29.58R
Millville      MOSUNNY   55  32  41 NW24G36   29.64R
Atlantic City  SUNNY     53  31  42 NW23G39   29.60R
Wrightstown    PTSUNNY   52  31  44 NW15G25   29.56R
Toms River     SUNNY     52  29  41 NW22G30   29.57R
Belmar         MOSUNNY   51  29  42 W23G31    29.56R
$$

PAZ047>061-062-071-192100-
EASTERN PENNSYLVANIA

CITY           SKY/WX    TMP DP  RH WIND       PRES   REMARKS
Philadelphia   PTSUNNY   51  28  41 W22G35    29.64R
Allentown      MOSUNNY   48  26  42 NW20G35   29.61R
Scranton       CLOUDY    43  26  51 NW14      29.61R
$$

CTZ002-004>006-009-010-012-RIZ004-006-007-MAZ004-011-015-192100-
SOUTHERN NEW ENGLAND
 IN CT

CITY           SKY/WX    TMP DP  RH WIND       PRES   REMARKS
Bradley INTL   MOSUNNY   45  28  51 W24G41    29.45R
Hartford       SUNNY     47  28  47 NW21G33   29.47R
Danbury        PTSUNNY   44  28  53 W16G26    29.54R
Wtrbury/Oxford PTSUNNY   43  28  55 W13G28    29.49R
Norwalk Harbor NOT AVBL
Bridgeport     SUNNY     48  28  46 NW25G45   29.50R
Meriden        MOSUNNY   46  27  47 W15G30    29.48R
New Haven      MOSUNNY   48  30  49 W15G30    29.49R
Chester        FAIR      50  28  43 W14G35    29.43R
Groton         NOT AVBL
Wilimantic     PTSUNNY   48  29  47 W16G31    29.44R

 IN RI

CITY           SKY/WX    TMP DP  RH WIND       PRES   REMARKS
Providence     MOSUNNY   49  31  49 NW22G40   29.38R
Block Island   SUNNY     50  32  50 NW20G32   29.41R
Westerly       SUNNY     51  30  44 NW14G32   29.42R
 IN MA

CITY           SKY/WX    TMP DP  RH WIND       PRES   REMARKS
Boston         MOSUNNY   47  30  51 W25G38    29.32R
Worcester      PTSUNNY   39  25  57 W15G33    29.36R WCI  31
Westfield      PTSUNNY   44  27  51 NW16G37   29.46R
Provincetown   SUNNY     49  35  58 W23G35    29.29R
Nantucket      SUNNY     52  37  56 W26G43    29.35R
$$

ANZ330-335-338-340-345-350-353-355-192100-
COASTAL MARINE OBSERVATIONS


STATION/POSITION TIME  SKY/WX   TEMP    WIND        PRES    VSBY  WAVE
                                AIR SEA DIR/SP/G                  HT/PER
                 (UTC)          (F)     (DEG/KT/KT) (MB)    (MI)  (FT/S)
NY HARB ENTRANCE 1850            52 58  290/ 29/ 35  998.4          6/ 5
20 S FIRE ISLAND 1850            52 58  310/ 27/ 33  998.3         11/ 7
GREAT SOUTH BAY  1845            48 48  300/ 21/ 31   N/A
HUDSON CANYON    1850            53 60  300/ 29/ 37  997.9         13/10
KINGS POINT      1930            47 52  340/ 25/ 28 1001.4
EXECUTION ROCKS  1930            49     270/ 21/ 35   N/A
WESTERN LI SOUND 1919            48     300/ 23/ 37   N/A           3/ 3
CENTRAL LI SOUND NOT AVBL
ROBBINS REEF     1930            49     320/ 24/ 31 1000.7
$$


>>>>>>>>>>>>>>>>>>>>>>>>>>>> KEY <<<<<<<<<<<<<<<<<<<<<<<<<<<
>                                                          <
>     SKY/WX - Sky Condition/Present Weather               <
>     TMP    - Temperature in Fahrenheit                   <
>     DP     - Dew Point in Fahrenheit                     <
>     RH     - Relative Humidity in Percent                <
>     WIND   - Direction (from) and Speed in MPH           <
>     PRES   - Mean Sea Level Pressure (inches of Hg)      <
>     WCI    - Wind Chill Index                            <
>     VSB    - VISIBILITY IN MILES                         <
>     HX     - HEAT INDEX                                  <
>     TC     - TEMPERATURE IN CELSIUS                      <
>     VRB    - VARIABLE WIND DIRECTION                     <
>                                                          <
>>>>>>>>>>>>>>>>>>>>>>>>>>>> KEY <<<<<<<<<<<<<<<<<<<<<<<<<<<




USA.gov is the U.S. government's official web portal to all federal, state and local government web resources and services.